Clinton, OK

4:12 PM CDT on August 27, 2016 (GMT -0500)
Clinton Municipal

Weather History for KCLK - November, 2012

Change the Weather History Date:

Thursday, November 8, 2012

  Actual Average (KCSM) Record (KCSM)
Temperature  
Mean Temperature 64 °F -  
Max Temperature 80 °F 58 °F 88 °F (2005)
Min Temperature 48 °F 41 °F 33 °F (2000)
Degree Days  
Heating Degree Days 1    
Growing Degree Days 14 (Base 50)    
Moisture  
Dew Point 40 °F    
Average Humidity 44    
Maximum Humidity 58    
Minimum Humidity 24    
Precipitation  
Precipitation 0.00 in - - ()
Sea Level Pressure  
Sea Level Pressure 29.89 in    
Wind  
Wind Speed 15 mph (SSE)    
Max Wind Speed 24 mph    
Max Gust Speed 33 mph    
Visibility 10 miles    
Events      
Averages and records for this station are not official NWS values.
T = Trace of Precipitation, MM = Missing Value Source: NWS Daily Summary

Daily Weather History Graph

Daily Weather History Graph

Search for Another Location

Airport or City:

Trip Planner

Search our weather history database for the weather conditions in past years. The results will help you decide how hot, cold, wet, or windy it might be!

Date:

Astronomy

Nov. 08, 2012 Rise Set
Actual Time 7:04 AM CST 5:33 PM CST
Civil Twilight 6:38 AM CST 6:00 PM CST
Nautical Twilight 6:07 AM CST 6:30 PM CST
Astronomical Twilight 5:37 AM CST 7:00 PM CST
Moon 1:13 AM CST (11/8) 2:05 PM CST (11/8)
Length of Visible Light 11h 22m
Length of Day
10h 28m
Waning Crescent, 32% of the Moon is Illuminated
Nov 8
Waning Crescent
Nov 13
New
Nov 20
First Quarter
Nov 28
Full
Dec 6
Last Quarter

Hourly Weather History & Observations

Time (CST) Temp. Dew Point Humidity Pressure Visibility Wind Dir Wind Speed Gust Speed Precip Events Conditions
12:15 AM 53.6 °F 32.0 °F 44% 29.99 in 10.0 mi SSE 13.8 mph - N/A   Clear
12:35 AM 51.8 °F 32.0 °F 47% 29.99 in 10.0 mi SSE 12.7 mph - N/A   Clear
12:55 AM 51.8 °F 32.0 °F 47% 29.99 in 10.0 mi SSE 13.8 mph - N/A   Clear
1:15 AM 51.8 °F 32.0 °F 47% 29.98 in 10.0 mi SSE 12.7 mph - N/A   Clear
1:35 AM 51.8 °F 32.0 °F 47% 29.98 in 10.0 mi SSE 13.8 mph - N/A   Clear
1:55 AM 50.0 °F 32.0 °F 50% 29.98 in 10.0 mi SSE 11.5 mph - N/A   Clear
2:15 AM 50.0 °F 32.0 °F 50% 29.97 in 10.0 mi SSE 11.5 mph - N/A   Clear
2:35 AM 50.0 °F 32.0 °F 50% 29.97 in 10.0 mi SSE 12.7 mph - N/A   Clear
2:55 AM 50.0 °F 32.0 °F 50% 29.97 in 10.0 mi SSE 13.8 mph - N/A   Clear
3:15 AM 50.0 °F 32.0 °F 50% 29.97 in 10.0 mi SSE 11.5 mph - N/A   Clear
3:35 AM 50.0 °F 32.0 °F 50% 29.96 in 10.0 mi SE 12.7 mph - N/A   Clear
3:55 AM 50.0 °F 32.0 °F 50% 29.96 in 10.0 mi SSE 12.7 mph - N/A   Clear
4:15 AM 50.0 °F 32.0 °F 50% 29.95 in 10.0 mi SSE 12.7 mph - N/A   Clear
4:35 AM 50.0 °F 32.0 °F 50% 29.95 in 10.0 mi SSE 13.8 mph - N/A   Clear
4:55 AM 50.0 °F 33.8 °F 54% 29.95 in 10.0 mi SSE 13.8 mph - N/A   Clear
5:15 AM 50.0 °F 33.8 °F 54% 29.95 in 10.0 mi SSE 15.0 mph - N/A   Clear
5:35 AM 50.0 °F 33.8 °F 54% 29.94 in 10.0 mi SSE 16.1 mph - N/A   Clear
5:55 AM 50.0 °F 33.8 °F 54% 29.93 in 10.0 mi SSE 15.0 mph - N/A   Clear
6:15 AM 50.0 °F 33.8 °F 54% 29.93 in 10.0 mi SSE 15.0 mph - N/A   Clear
6:35 AM 48.2 °F 33.8 °F 58% 29.93 in 10.0 mi SSE 12.7 mph - N/A   Clear
6:55 AM 48.2 °F 33.8 °F 58% 29.92 in 10.0 mi SSE 13.8 mph - N/A   Clear
7:15 AM 50.0 °F 35.6 °F 58% 29.93 in 10.0 mi SSE 12.7 mph - N/A   Clear
7:35 AM 50.0 °F 35.6 °F 58% 29.93 in 10.0 mi SSE 15.0 mph - N/A   Clear
7:55 AM 50.0 °F 35.6 °F 58% 29.93 in 10.0 mi SSE 18.4 mph - N/A   Clear
8:15 AM 51.8 °F 35.6 °F 54% 29.94 in 10.0 mi SSE 16.1 mph - N/A   Clear
8:35 AM 53.6 °F 37.4 °F 54% 29.94 in 10.0 mi SSE 13.8 mph - N/A   Clear
8:55 AM 55.4 °F 37.4 °F 51% 29.94 in 10.0 mi SSE 18.4 mph 23.0 mph N/A   Clear
9:15 AM 59.0 °F 37.4 °F 45% 29.94 in 10.0 mi SSE 18.4 mph - N/A   Clear
9:35 AM 60.8 °F 41.0 °F 48% 29.93 in 10.0 mi South 19.6 mph 23.0 mph N/A   Clear
9:55 AM 64.4 °F 41.0 °F 42% 29.93 in 10.0 mi South 21.9 mph 33.4 mph N/A   Clear
10:15 AM 64.4 °F 41.0 °F 42% 29.93 in 10.0 mi South 21.9 mph 28.8 mph N/A   Clear
10:35 AM 66.2 °F 42.8 °F 43% 29.92 in 10.0 mi South 20.7 mph 27.6 mph N/A   Clear
10:55 AM 68.0 °F 42.8 °F 40% 29.92 in 10.0 mi South 21.9 mph 28.8 mph N/A   Clear
11:15 AM 69.8 °F 42.8 °F 38% 29.91 in 10.0 mi South 24.2 mph 27.6 mph N/A   Clear
11:35 AM 69.8 °F 42.8 °F 38% 29.90 in 10.0 mi South 20.7 mph - N/A   Clear
11:55 AM 71.6 °F 42.8 °F 35% 29.90 in 10.0 mi South 19.6 mph 26.5 mph N/A   Clear
12:15 PM 73.4 °F 42.8 °F 33% 29.88 in 10.0 mi South 18.4 mph 24.2 mph N/A   Clear
12:35 PM 73.4 °F 42.8 °F 33% 29.87 in 10.0 mi SSW 17.3 mph - N/A   Clear
12:55 PM 75.2 °F 41.0 °F 29% 29.86 in 10.0 mi SSW 20.7 mph 26.5 mph N/A   Clear
1:15 PM 77.0 °F 41.0 °F 28% 29.85 in 10.0 mi South 19.6 mph - N/A   Clear
1:35 PM 77.0 °F 41.0 °F 28% 29.83 in 10.0 mi South 19.6 mph - N/A   Clear
1:55 PM 77.0 °F 41.0 °F 28% 29.83 in 10.0 mi South 19.6 mph 27.6 mph N/A   Clear
2:15 PM 78.8 °F 41.0 °F 26% 29.83 in 10.0 mi South 20.7 mph 26.5 mph N/A   Clear
2:35 PM 78.8 °F 41.0 °F 26% 29.83 in 10.0 mi South 19.6 mph 24.2 mph N/A   Clear
2:55 PM 80.6 °F 41.0 °F 24% 29.82 in 10.0 mi South 20.7 mph 25.3 mph N/A   Clear
3:15 PM 78.8 °F 41.0 °F 26% 29.83 in 10.0 mi South 17.3 mph 20.7 mph N/A   Clear
3:35 PM 78.8 °F 42.8 °F 28% 29.83 in 10.0 mi South 16.1 mph 24.2 mph N/A   Clear
4:15 PM 77.0 °F 42.8 °F 29% 29.83 in 10.0 mi South 12.7 mph 18.4 mph N/A   Clear
4:35 PM 78.8 °F 42.8 °F 28% 29.82 in 10.0 mi South 16.1 mph - N/A   Clear
4:55 PM 77.0 °F 44.6 °F 32% 29.82 in 10.0 mi South 16.1 mph - N/A   Clear
5:15 PM 75.2 °F 46.4 °F 36% 29.81 in 10.0 mi South 11.5 mph - N/A   Clear
5:35 PM 73.4 °F 46.4 °F 38% 29.80 in 10.0 mi South 13.8 mph - N/A   Clear
6:15 PM 73.4 °F 48.2 °F 41% 29.80 in 10.0 mi SSE 13.8 mph - N/A   Clear
6:35 PM 71.6 °F 48.2 °F 43% 29.81 in 10.0 mi SSE 11.5 mph - N/A   Clear
6:55 PM 71.6 °F 48.2 °F 43% 29.81 in 10.0 mi SSE 12.7 mph - N/A   Clear
7:15 PM 71.6 °F 48.2 °F 43% 29.82 in 10.0 mi SSE 13.8 mph - N/A   Clear
7:35 PM 69.8 °F 48.2 °F 46% 29.82 in 10.0 mi SSE 11.5 mph - N/A   Clear
7:55 PM 69.8 °F 48.2 °F 46% 29.82 in 10.0 mi SSE 10.4 mph - N/A   Clear
8:35 PM 68.0 °F 48.2 °F 49% 29.82 in 10.0 mi SSE 12.7 mph - N/A   Clear
8:55 PM 68.0 °F 48.2 °F 49% 29.83 in 10.0 mi SSE 11.5 mph - N/A   Clear
9:15 PM 68.0 °F 48.2 °F 49% 29.83 in 10.0 mi SSE 10.4 mph - N/A   Clear
9:35 PM 68.0 °F 50.0 °F 52% 29.83 in 10.0 mi SSE 13.8 mph - N/A   Clear
10:15 PM 69.8 °F 50.0 °F 49% 29.83 in 10.0 mi South 16.1 mph 20.7 mph N/A   Clear
10:35 PM 68.0 °F 50.0 °F 52% 29.83 in 10.0 mi South 17.3 mph - N/A   Clear
10:55 PM 68.0 °F 50.0 °F 52% 29.83 in 10.0 mi South 16.1 mph - N/A   Clear
11:15 PM 68.0 °F 50.0 °F 52% 29.84 in 10.0 mi South 15.0 mph - N/A   Clear
11:35 PM 68.0 °F 50.0 °F 52% 29.84 in 10.0 mi South 15.0 mph - N/A   Clear
11:55 PM 68.0 °F 50.0 °F 52% 29.84 in 10.0 mi South 15.0 mph - N/A   Clear